Time,TemperatureF,DewpointF,PressureIn,WindDirection,WindDirectionDegrees,WindSpeedMPH,WindSpeedGustMPH,Humidity,HourlyPrecipIn,Conditions,Clouds,dailyrainin,SoftwareType,DateUTC
2015-01-25 00:04:00,45.7,37.2,30.25,SW,218,0.0,1.0,72,0.00,,---,0.00,VWS V15.00,2015-01-25 08:04:00,
2015-01-25 00:09:00,45.6,36.8,30.25,SW,232,1.0,1.0,71,0.00,,---,0.00,VWS V15.00,2015-01-25 08:09:00,
2015-01-25 00:14:00,45.6,36.8,30.25,SW,231,0.0,2.0,71,0.00,,---,0.00,VWS V15.00,2015-01-25 08:14:00,
2015-01-25 00:19:00,45.6,36.8,30.25,WSW,244,1.0,2.0,71,0.00,,---,0.00,VWS V15.00,2015-01-25 08:19:00,
2015-01-25 00:24:00,45.7,36.5,30.25,SW,233,1.0,2.0,70,0.00,,---,0.00,VWS V15.00,2015-01-25 08:24:00,
2015-01-25 00:29:00,45.6,36.4,30.25,WSW,250,0.0,2.0,70,0.00,,---,0.00,VWS V15.00,2015-01-25 08:29:00,
2015-01-25 00:34:00,45.7,36.5,30.25,WSW,242,1.0,2.0,70,0.00,,---,0.00,VWS V15.00,2015-01-25 08:34:00,
2015-01-25 00:39:00,46.2,36.6,30.25,WSW,248,0.0,3.0,69,0.00,,---,0.00,VWS V15.00,2015-01-25 08:39:00,
2015-01-25 00:44:00,46.4,36.8,30.25,WSW,249,0.0,3.0,69,0.00,,---,0.00,VWS V15.00,2015-01-25 08:44:00,
2015-01-25 00:49:00,46.3,36.7,30.24,WSW,249,0.0,3.0,69,0.00,,---,0.00,VWS V15.00,2015-01-25 08:49:00,
2015-01-25 00:54:00,45.7,36.5,30.24,WSW,249,0.0,3.0,70,0.00,,---,0.00,VWS V15.00,2015-01-25 08:54:00,
2015-01-25 00:59:00,45.4,36.2,30.24,WSW,249,0.0,3.0,70,0.00,,---,0.00,VWS V15.00,2015-01-25 08:59:00,
2015-01-25 01:04:00,45.2,36.4,30.24,WSW,249,0.0,0.0,71,0.00,,---,0.00,VWS V15.00,2015-01-25 09:04:00,
2015-01-25 01:09:00,45.1,36.3,30.24,WSW,248,0.0,0.0,71,0.00,,---,0.00,VWS V15.00,2015-01-25 09:09:00,
2015-01-25 01:14:00,45.2,36.0,30.24,WSW,248,0.0,0.0,70,0.00,,---,0.00,VWS V15.00,2015-01-25 09:14:00,
2015-01-25 01:19:00,45.1,35.9,30.24,WSW,247,0.0,0.0,70,0.00,,---,0.00,VWS V15.00,2015-01-25 09:19:00,
2015-01-25 01:24:00,44.9,36.1,30.24,WSW,248,0.0,0.0,71,0.00,,---,0.00,VWS V15.00,2015-01-25 09:24:00,
2015-01-25 01:29:00,44.9,35.7,30.24,WSW,249,0.0,1.0,70,0.00,,---,0.00,VWS V15.00,2015-01-25 09:29:00,
2015-01-25 01:34:00,45.1,35.9,30.24,SW,221,0.0,1.0,70,0.00,,---,0.00,VWS V15.00,2015-01-25 09:34:00,
2015-01-25 01:39:00,45.1,35.9,30.24,SW,221,0.0,1.0,70,0.00,,---,0.00,VWS V15.00,2015-01-25 09:39:00,
2015-01-25 01:44:00,44.9,35.7,30.24,SW,221,0.0,1.0,70,0.00,,---,0.00,VWS V15.00,2015-01-25 09:44:00,
2015-01-25 01:49:00,44.5,35.7,30.24,SW,221,0.0,1.0,71,0.00,,---,0.00,VWS V15.00,2015-01-25 09:49:00,
2015-01-25 01:54:00,44.3,35.5,30.24,SW,221,0.0,1.0,71,0.00,,---,0.00,VWS V15.00,2015-01-25 09:54:00,
2015-01-25 01:59:00,44.2,35.4,30.24,SW,221,0.0,1.0,71,0.00,,---,0.00,VWS V15.00,2015-01-25 09:59:00,
2015-01-25 02:04:00,43.9,35.5,30.24,SW,221,0.0,0.0,72,0.00,,---,0.00,VWS V15.00,2015-01-25 10:04:00,
2015-01-25 02:09:00,43.6,35.9,30.24,SW,221,0.0,0.0,74,0.00,,---,0.00,VWS V15.00,2015-01-25 10:09:00,
2015-01-25 02:14:00,43.4,35.7,30.24,SW,220,0.0,0.0,74,0.00,,---,0.00,VWS V15.00,2015-01-25 10:14:00,
2015-01-25 02:19:00,43.2,35.5,30.24,SW,221,0.0,0.0,74,0.00,,---,0.00,VWS V15.00,2015-01-25 10:19:00,
2015-01-25 02:24:00,43.2,35.1,30.24,SW,222,0.0,1.0,73,0.00,,---,0.00,VWS V15.00,2015-01-25 10:24:00,
2015-01-25 02:29:00,43.2,35.1,30.24,SW,221,0.0,1.0,73,0.00,,---,0.00,VWS V15.00,2015-01-25 10:29:00,
2015-01-25 02:34:00,43.2,34.8,30.24,SW,222,0.0,0.0,72,0.00,,---,0.00,VWS V15.00,2015-01-25 10:34:00,
2015-01-25 02:39:00,43.2,34.5,30.24,SW,228,0.0,1.0,71,0.00,,---,0.00,VWS V15.00,2015-01-25 10:39:00,
2015-01-25 02:44:00,43.3,34.5,30.24,WSW,245,0.0,1.0,71,0.00,,---,0.00,VWS V15.00,2015-01-25 10:44:00,
2015-01-25 02:49:00,43.3,34.5,30.24,WSW,244,0.0,1.0,71,0.00,,---,0.00,VWS V15.00,2015-01-25 10:49:00,
2015-01-25 02:54:00,43.2,34.5,30.24,WSW,245,0.0,1.0,71,0.00,,---,0.00,VWS V15.00,2015-01-25 10:54:00,
2015-01-25 02:59:00,43.1,34.3,30.24,WSW,245,0.0,1.0,71,0.00,,---,0.00,VWS V15.00,2015-01-25 10:59:00,
2015-01-25 03:04:00,43.3,34.2,30.24,WSW,244,0.0,0.0,70,0.00,,---,0.00,VWS V15.00,2015-01-25 11:04:00,
2015-01-25 03:09:00,43.3,34.2,30.24,WSW,245,0.0,0.0,70,0.00,,---,0.00,VWS V15.00,2015-01-25 11:09:00,
2015-01-25 03:14:00,43.0,34.2,30.24,WSW,245,0.0,1.0,71,0.00,,---,0.00,VWS V15.00,2015-01-25 11:14:00,
2015-01-25 03:19:00,42.9,34.2,30.24,WSW,245,0.0,1.0,71,0.00,,---,0.00,VWS V15.00,2015-01-25 11:19:00,
2015-01-25 03:24:00,42.8,34.1,30.24,WSW,245,0.0,1.0,71,0.00,,---,0.00,VWS V15.00,2015-01-25 11:24:00,
2015-01-25 03:29:00,42.8,34.1,30.24,WSW,245,0.0,1.0,71,0.00,,---,0.00,VWS V15.00,2015-01-25 11:29:00,
2015-01-25 03:34:00,42.7,34.0,30.24,WSW,245,0.0,0.0,71,0.00,,---,0.00,VWS V15.00,2015-01-25 11:34:00,